Station 41033 - Fripp Nearshore, SC (FRP2) Image indicating link to RSS feed of recent meteorological observations for station 41033


Conditions at 41033 as of
(5:08 am EDT)
0908 GMT on 05/30/2024:
     

Click on the graph icon in the table below to see a time series plot of the last five days of that observation.

5-day plot - Wind Direction Wind Direction (WDIR):NNW ( 330 deg true )
5-day plot - Wind Speed Wind Speed (WSPD):7.0 m/s
5-day plot - Wind Gust Wind Gust (GST):10.0 m/s
5-day plot - Atmospheric Pressure Atmospheric Pressure (PRES):1014.9 mb
5-day plot - Air Temperature Air Temperature (ATMP): 23.8 °C
5-day plot - Water Temperature Water Temperature (WTMP): 25.5 °C
5-day plot - Dew Point Dew Point (DEWP): 16.9 °C
5-day plot - Wind Speed at 10 Meters Wind Speed at 10 meters (WSPD10M): 9 m/s
5-day plot - Wind Speed at 20 Meters Wind Speed at 20 meters (WSPD20M): 9 m/s
5-day plot -  Wind Speed, Wind Gust and Atmospheric Pressure Combined plot of Wind Speed, Gust, and Air Pressure
Previous observations
TIME
(EDT)
5-day plot - Wind Direction
WDIR
 
5-day plot - Wind Speed
WSPD
m/s
5-day plot - Wind Gust
GST
m/s
5-day plot - Wave Height
WVHT
m
5-day plot - Dominant Wave Period
DPD
sec
5-day plot - Average Wave Period
APD
sec
5-day plot - Mean Wave Direction
MWD
 
5-day plot - Atmospheric Pressure
PRES
mb
5-day plot - Pressure Tendency
PTDY
mb
5-day plot - Air Temperature
ATMP
°C
5-day plot - Water Temperature
WTMP
°C
5-day plot - Dew Point
DEWP
°C
5-day plot - Salinity
SAL
psu
5-day plot - Visibility
VIS
km
5-day plot - Tide (above MLLW)
TIDE
m
2024-05-30 04:08 am NW 7.0 9.0----1014.7- 24.7 25.7 17.1---
2024-05-30 03:08 am NW 5.0 7.0----1014.9- 25.5 25.9 17.9---
2024-05-30 02:08 amWNW 5.0 6.0----1015.2- 25.9 26.0 18.1---
2024-05-30 01:08 amWNW 5.0 7.0----1015.3- 26.0 26.1 18.5---
2024-05-30 12:08 am NW 5.0 6.0----1015.1- 26.3 25.6 19.0---
2024-05-29 11:08 pm W 4.0 6.0----1015.2- 26.5 25.7 20.0---
2024-05-29 10:08 pm SW 4.0 6.0----1014.8- 27.3 25.5 20.2---
2024-05-29 09:08 pm SW 4.0 5.0----1014.5- 26.8 25.4 22.5---
2024-05-29 08:08 pm W 3.0 4.0----1014.3- 28.0 25.5 20.7---
2024-05-29 07:08 pm W 4.0 6.0----1013.9- 28.8 25.8 19.6---
2024-05-29 06:08 pm W 5.0 7.0----1014.0- 29.0 25.9 19.5---
2024-05-29 05:08 pmWNW 2.0 3.0----1014.5- 29.3 25.9 17.3---
2024-05-29 04:08 pm W 3.0 6.0----1015.0- 28.2 25.6 19.5---
2024-05-29 03:08 pmWNW 3.0 5.0----1015.3- 28.3 25.4 17.7---
2024-05-29 02:08 pmWNW 5.0 7.0----1015.3- 28.1 25.2 17.1---
2024-05-29 01:08 pmWNW 4.0 6.0----1015.8- 27.2 25.3 19.5---
2024-05-29 12:08 pm NW 2.0 4.0----1016.3- 26.4 25.1 20.3---
2024-05-29 11:08 am W 4.0 5.0----1016.2- 25.9 24.9 19.6---
2024-05-29 10:08 am W 1.0 2.0----1016.1- 25.2 24.7 19.8---
2024-05-29 09:08 amWNW 2.0 3.0----1015.8- 24.4 24.7 19.1---
2024-05-29 08:08 amWNW 4.0 5.0----1015.0- 24.1 24.7 18.9---
2024-05-29 07:08 amWNW 4.0 5.0----1014.7- 24.1 24.9 18.5---
2024-05-29 06:08 am NW 5.0 6.0----1014.1- 25.0 25.4 18.9---
2024-05-29 05:08 am NW 5.0 7.0----1013.8- 25.3 25.8 19.4---